This demonstration page uses our WeatherBlox Daily Observations layout. Learn more.

40.92945, -100.16068

Hourly Observations for December 31, 2018

Temp ( °F °C ) Dew Point ( °F °C ) Humidity (%) Winds ( mph kmh ) Pressure ( in mb ) Visibility ( mi km ) Precip ( " mm )
12:15 am 00:15 Partly Cloudy 27 -2.9 21 -5.9 80 80 Calm 29.71 1006 10 16.0934 0 0
12:35 am 00:35 Clear 27 -2.8 21 -6 79 79 Calm 29.71 1006 10 16.0934 0 0
12:55 am 00:55 Clear 27 -3 21 -5.9 81 81 Calm 29.71 1006 10 16.0934 0 0
1:15 am 01:15 Partly Cloudy 27 -2.8 22 -5.8 80 80 Calm 29.71 1006 10 16.0934 0 0
1:35 am 01:35 Partly Cloudy 26 -3.1 22 -5.6 83 83 Calm 29.74 1007 10 16.0934 0 0
1:55 am 01:55 Clear 26 -3.2 23 -5.1 87 87 NNE 5 7 29.74 1007 10 16.0934 0 0
2:15 am 02:15 Clear 26 -3.3 23 -5.2 87 87 NNW 6 9 29.74 1007 10 16.0934 0 0
2:35 am 02:35 Clear 26 -3.4 22 -5.5 86 86 WNW 6 9 29.74 1007 10 16.0934 0 0
2:55 am 02:55 Clear 26 -3.6 22 -5.8 85 85 Calm 29.74 1007 10 16.0934 0 0
3:15 am 03:15 Clear 25 -4 21 -6.2 85 85 NNW 5 7 29.74 1007 10 16.0934 0 0
3:35 am 03:35 Clear 24 -4.7 20 -6.6 87 87 W 8 13 29.74 1007 10 16.0934 0 0
3:55 am 03:55 Clear 24 -4.3 21 -6.2 87 87 WSW 3 6 29.74 1007 10 16.0934 0 0
4:15 am 04:15 Clear 24 -4.3 20 -6.6 84 84 W 3 6 29.74 1007 10 16.0934 0 0
4:35 am 04:35 Clear 23 -4.8 20 -6.9 85 85 NW 6 9 29.71 1006 10 16.0934 0 0
4:55 am 04:55 Clear 22 -5.7 18 -7.6 87 87 NW 8 13 29.71 1006 10 16.0934 0 0
5:15 am 05:15 Clear 23 -4.9 20 -6.6 88 88 NNW 8 13 29.74 1007 10 16.0934 0 0
5:35 am 05:35 Clear 28 -2.5 25 -3.8 91 91 N 9 15 29.71 1006 10 16.0934 0 0
5:55 am 05:55 Clear 33 0.5 30 -1.2 89 89 N 12 19 29.71 1006 10 16.0934 0 0
6:15 am 06:15 Clear 34 1 30 -1.1 86 86 N 17 28 29.71 1006 10 16.0934 0 0
6:35 am 06:35 Clear 33 0.7 29 -1.5 85 85 N 18 30 29.74 1007 10 16.0934 0 0
6:55 am 06:55 Mostly Cloudy 33 0.6 29 -1.5 86 86 N 24 39 29.8 1009 10 16.0934 0 0
7:15 am 07:15 Cloudy 33 0.5 30 -1.3 88 88 N 25 41 29.8 1009 10 16.0934 0 0
7:35 am 07:35 Cloudy 32 0 30 -1.1 92 92 N 24 39 29.8 1009 7 11.26538 0 0
7:55 am 07:55 Cloudy 27 -2.6 24 -4.4 88 88 N 32 52 29.85 1011 7 11.26538 0 0
8:15 am 08:15 Cloudy 25 -4 20 -6.5 83 83 N 31 50 29.88 1012 10 16.0934 0 0
8:35 am 08:35 Cloudy 23 -5.2 18 -8 81 81 N 38 61 29.94 1014 10 16.0934 0 0
8:55 am 08:55 Cloudy 22 -5.5 17 -8.5 80 80 N 31 50 29.97 1015 10 16.0934 0 0
9:15 am 09:15 Cloudy 21 -6.1 14 -10 74 74 N 28 44 29.97 1015 10 16.0934 0 0
9:35 am 09:35 Cloudy 21 -6.2 15 -9.7 77 77 N 28 44 30 1016 10 16.0934 0 0
9:55 am 09:55 Cloudy 19 -7 12 -10.9 74 74 N 32 52 30.03 1017 10 16.0934 0 0
10:15 am 10:15 Cloudy 19 -7 12 -11 73 73 N 26 43 30.06 1018 10 16.0934 0 0
10:35 am 10:35 Cloudy 18 -7.7 10 -12 72 72 N 30 48 30.09 1019 10 16.0934 0 0
10:55 am 10:55 Cloudy 18 -8 10 -12 73 73 NNW 28 44 30.09 1019 10 16.0934 0 0
11:15 am 11:15 Cloudy 17 -8.5 10 -12.5 73 73 N 30 48 30.09 1019 10 16.0934 0 0
11:35 am 11:35 Cloudy 17 -8.5 9 -12.7 72 72 NNW 31 50 30.12 1020 10 16.0934 0 0
11:55 am 11:55 Cloudy 17 -8.5 9 -12.6 73 73 N 28 44 30.12 1020 10 16.0934 0 0
12:15 pm 12:15 Cloudy 17 -8.4 9 -12.7 71 71 N 30 48 30.12 1020 10 16.0934 0 0
12:35 pm 12:35 Cloudy 17 -8.5 8 -13.1 70 70 N 33 54 30.12 1020 10 16.0934 0 0
12:55 pm 12:55 Cloudy 17 -8.2 9 -12.6 71 71 N 32 52 30.12 1020 10 16.0934 0 0
1:15 pm 13:15 Cloudy 17 -8.5 9 -12.8 71 71 N 32 52 30.18 1022 10 16.0934 0 0
1:35 pm 13:35 Cloudy 17 -8.5 9 -12.8 71 71 N 29 46 30.18 1022 10 16.0934 0 0
1:55 pm 13:55 Cloudy 17 -8.5 9 -12.8 71 71 N 29 46 30.21 1023 10 16.0934 0 0
2:15 pm 14:15 Windy with Snow Likely 17 -8.5 9 -12.7 72 72 N 28 44 30.21 1023 10 16.0934 0 0
2:35 pm 14:35 Cloudy 16 -8.8 9 -12.8 73 73 N 26 43 30.21 1023 10 16.0934 0 0
2:55 pm 14:55 Cloudy 16 -9.1 8 -13.2 72 72 N 30 48 30.21 1023 10 16.0934 0 0
3:15 pm 15:15 Cloudy 15 -9.2 9 -13 74 74 N 35 56 30.24 1024 7 11.26538 0 0
3:35 pm 15:35 Cloudy 15 -9.7 7 -13.8 72 72 N 35 56 30.24 1024 10 16.0934 0 0
3:55 pm 15:55 Cloudy 15 -9.5 8 -13.3 74 74 NNW 30 48 30.24 1024 10 16.0934 0 0
4:15 pm 16:15 Cloudy 14 -10 8 -13.6 75 75 NNW 25 41 30.27 1025 7 11.26538 0 0
4:35 pm 16:35 Cloudy 13 -10.5 5 -14.8 71 71 N 33 54 30.33 1027 10 16.0934 0 0
4:55 pm 16:55 Cloudy 13 -10.7 6 -14.7 73 73 N 29 46 30.33 1027 10 16.0934 0 0
5:15 pm 17:15 Cloudy 12 -11 5 -15.1 72 72 N 32 52 30.33 1027 10 16.0934 0 0
5:35 pm 17:35 Cloudy 11 -11.4 4 -15.4 73 73 N 28 44 30.33 1027 10 16.0934 0 0
5:55 pm 17:55 Cloudy 11 -11.6 4 -15.6 73 73 N 24 39 30.33 1027 10 16.0934 0 0
6:15 pm 18:15 Mostly Cloudy 10 -12.1 3 -16.3 71 71 N 26 43 30.36 1028 10 16.0934 0 0
6:35 pm 18:35 Partly Cloudy 10 -12.2 3 -16.1 73 73 NNW 23 37 30.42 1030 10 16.0934 0 0
6:55 pm 18:55 Mostly Cloudy 10 -12.2 2 -16.4 71 71 N 22 35 30.45 1031 10 16.0934 0 0
7:15 pm 19:15 Cloudy 10 -12.4 2 -16.4 72 72 N 25 41 30.45 1031 10 16.0934 0 0
7:35 pm 19:35 Cloudy 10 -12.5 2 -16.5 72 72 N 25 41 30.45 1031 10 16.0934 0 0
7:55 pm 19:55 Cloudy 9 -12.6 2 -16.7 72 72 N 23 37 30.45 1031 10 16.0934 0 0
8:15 pm 20:15 Cloudy 9 -12.8 0 -17.7 67 67 N 17 28 30.5 1033 10 16.0934 0 0
8:35 pm 20:35 Cloudy 9 -12.6 -1 -18.5 62 62 NNW 23 37 30.53 1034 10 16.0934 0 0
8:55 pm 20:55 Cloudy 9 -12.8 -2 -18.9 61 61 NNW 22 35 30.53 1034 10 16.0934 0 0
9:15 pm 21:15 Cloudy 9 -13 -3 -19.3 60 60 NNW 18 30 30.53 1034 10 16.0934 0 0
9:35 pm 21:35 Cloudy 9 -13 -4 -19.8 57 57 NNW 21 33 30.53 1034 10 16.0934 0 0
9:55 pm 21:55 Cloudy 9 -13 -4 -19.9 57 57 N 22 35 30.56 1035 10 16.0934 0 0
10:15 pm 22:15 Cloudy 9 -13 -4 -19.8 57 57 N 17 28 30.56 1035 10 16.0934 0 0
10:35 pm 22:35 Cloudy 8 -13.1 -3 -19.7 58 58 N 17 28 30.56 1035 10 16.0934 0 0
10:55 pm 22:55 Cloudy 8 -13.1 -4 -19.9 57 57 N 18 30 30.56 1035 10 16.0934 0 0
11:15 pm 23:15 Cloudy 8 -13.1 -4 -19.8 57 57 N 20 31 30.56 1035 10 16.0934 0 0
11:35 pm 23:35 Cloudy 8 -13.4 -4 -20.2 57 57 N 20 31 30.56 1035 10 16.0934 0 0
11:55 pm 23:55 Cloudy 8 -13.3 -4 -20 57 57 N 18 30 30.62 1037 10 16.0934 0 0

Powered by AerisWeather